| time (UTC) | temp F | wind direction | speed MPH | gust MPH | rain 1hr in | rain 24hr in | rain mn in | humidity % | barometer mb |
| 20260509003745 | 77 | 344 | 7.0 | 15.0 | 0.00 | 0.00 | 0.00 | 20 | 1011.8 |
| 20260509002732 | 77 | 306 | 5.0 | 15.0 | 0.00 | 0.00 | 0.00 | 23 | 1011.9 |
| 20260509001737 | 77 | 355 | 6.0 | 10.0 | 0.00 | 0.00 | 0.00 | 22 | 1011.9 |
| 20260509000759 | 77 | 333 | 7.0 | 16.0 | 0.00 | 0.00 | 0.00 | 20 | 1012.0 |
| 20260508235756 | 77 | 315 | 7.0 | 13.0 | 0.00 | 0.00 | 0.00 | 20 | 1012.0 |
| 20260508234742 | 77 | 311 | 7.0 | 14.0 | 0.00 | 0.00 | 0.00 | 20 | 1012.1 |
| 20260508233745 | 76 | 337 | 7.0 | 14.0 | 0.00 | 0.00 | 0.00 | 21 | 1012.1 |
| 20260508232734 | 76 | 271 | 6.0 | 10.0 | 0.00 | 0.00 | 0.00 | 25 | 1012.1 |
| 20260508231726 | 75 | 213 | 4.0 | 12.0 | 0.00 | 0.00 | 0.00 | 27 | 1012.2 |
| 20260508230735 | 76 | 255 | 5.0 | 14.0 | 0.00 | 0.00 | 0.00 | 28 | 1012.2 |
| 20260508225727 | 75 | 215 | 7.0 | 11.0 | 0.00 | 0.00 | 0.00 | 26 | 1012.2 |
| 20260508224734 | 76 | 221 | 5.0 | 16.0 | 0.00 | 0.00 | 0.00 | 26 | 1012.3 |
| 20260508223800 | 76 | 299 | 5.0 | 10.0 | 0.00 | 0.00 | 0.00 | 25 | 1012.2 |
| 20260508222731 | 75 | 289 | 5.0 | 11.0 | 0.00 | 0.00 | 0.00 | 26 | 1012.5 |
| 20260508221739 | 75 | 267 | 8.0 | 11.0 | 0.00 | 0.00 | 0.00 | 24 | 1012.6 |
| 20260508220726 | 75 | 290 | 2.0 | 13.0 | 0.00 | 0.00 | 0.00 | 27 | 1012.7 |
| 20260508215741 | 74 | 331 | 7.0 | 13.0 | 0.00 | 0.00 | 0.00 | 25 | 1012.8 |
| 20260508214734 | 74 | 295 | 3.0 | 10.0 | 0.00 | 0.00 | 0.00 | 26 | 1013.0 |
| 20260508213800 | 75 | 284 | 6.0 | 16.0 | 0.00 | 0.00 | 0.00 | 26 | 1013.2 |
| 20260508212805 | 75 | 5 | 8.0 | 15.0 | 0.00 | 0.00 | 0.00 | 25 | 1013.2 |
| 20260508211731 | 74 | 284 | 5.0 | 11.0 | 0.00 | 0.00 | 0.00 | 26 | 1013.3 |
| 20260508210743 | 74 | 234 | 9.0 | 14.0 | 0.00 | 0.00 | 0.00 | 24 | 1013.3 |
| 20260508205740 | 74 | 238 | 5.0 | 19.0 | 0.00 | 0.00 | 0.00 | 27 | 1013.5 |
| 20260508204805 | 73 | 171 | 2.0 | 6.0 | 0.00 | 0.00 | 0.00 | 28 | 1013.6 |
| 20260508203729 | 73 | 278 | 0.0 | 10.0 | 0.00 | 0.00 | 0.00 | 29 | 1013.7 |
| 20260508202741 | 73 | 271 | 4.0 | 7.0 | 0.00 | 0.00 | 0.00 | 27 | 1013.8 |
| 20260508201806 | 74 | 17 | 3.0 | 10.0 | 0.00 | 0.00 | 0.00 | 28 | 1014.0 |
| 20260508200750 | 74 | 294 | 7.0 | 13.0 | 0.00 | 0.00 | 0.00 | 27 | 1014.0 |
| 20260508195742 | 73 | 238 | 3.0 | 11.0 | 0.00 | 0.00 | 0.00 | 30 | 1014.0 |
| 20260508194747 | 72 | 236 | 1.0 | 12.0 | 0.00 | 0.00 | 0.00 | 28 | 1014.1 |
| 20260508193754 | 71 | 209 | 2.0 | 11.0 | 0.00 | 0.00 | 0.00 | 31 | 1014.3 |
| 20260508192742 | 71 | 291 | 3.0 | 11.0 | 0.00 | 0.00 | 0.00 | 31 | 1014.4 |
| 20260508191730 | 69 | 257 | 4.0 | 8.0 | 0.00 | 0.00 | 0.00 | 31 | 1014.5 |
| 20260508190738 | 69 | 202 | 3.0 | 9.0 | 0.00 | 0.00 | 0.00 | 32 | 1014.6 |
| 20260508185730 | 68 | 229 | 3.0 | 8.0 | 0.00 | 0.00 | 0.00 | 33 | 1014.6 |
| 20260508184743 | 68 | 193 | 5.0 | 9.0 | 0.00 | 0.00 | 0.00 | 31 | 1014.8 |
| 20260508183730 | 69 | 186 | 2.0 | 13.0 | 0.00 | 0.00 | 0.00 | 33 | 1014.9 |
| 20260508182738 | 68 | 178 | 3.0 | 9.0 | 0.00 | 0.00 | 0.00 | 34 | 1014.9 |
| 20260508181803 | 68 | 204 | 2.0 | 8.0 | 0.00 | 0.00 | 0.00 | 33 | 1015.1 |
| 20260508180744 | 67 | 111 | 6.0 | 10.0 | 0.00 | 0.00 | 0.00 | 33 | 1015.2 |
| 20260508175740 | 67 | 126 | 4.0 | 8.0 | 0.00 | 0.00 | 0.00 | 32 | 1015.4 |
| 20260508174740 | 67 | 220 | 3.0 | 11.0 | 0.00 | 0.00 | 0.00 | 34 | 1015.4 |
| 20260508173726 | 66 | 171 | 5.0 | 10.0 | 0.00 | 0.00 | 0.00 | 31 | 1015.4 |
| 20260508172732 | 66 | 206 | 4.0 | 10.0 | 0.00 | 0.00 | 0.00 | 33 | 1015.4 |
| 20260508171738 | 66 | 212 | 4.0 | 8.0 | 0.00 | 0.00 | 0.00 | 33 | 1015.4 |
| 20260508170729 | 65 | 155 | 6.0 | 9.0 | 0.00 | 0.00 | 0.00 | 33 | 1015.5 |
| 20260508165757 | 64 | 173 | 6.0 | 10.0 | 0.00 | 0.00 | 0.00 | 37 | 1015.5 |
| 20260508164741 | 64 | 205 | 6.0 | 11.0 | 0.00 | 0.00 | 0.00 | 39 | 1015.4 |
| 20260508163745 | 63 | 185 | 7.0 | 11.0 | 0.00 | 0.00 | 0.00 | 41 | 1015.4 |
| 20260508162731 | 61 | 185 | 5.0 | 10.0 | 0.00 | 0.00 | 0.00 | 49 | 1015.4 |
| 20260508161738 | 60 | 192 | 5.0 | 10.0 | 0.00 | 0.00 | 0.00 | 56 | 1015.4 |
| 20260508160741 | 59 | 222 | 5.0 | 7.0 | 0.00 | 0.00 | 0.00 | 57 | 1015.4 |
| 20260508155731 | 58 | 205 | 3.0 | 7.0 | 0.00 | 0.00 | 0.00 | 56 | 1015.5 |
| 20260508154735 | 57 | 173 | 5.0 | 7.0 | 0.00 | 0.00 | 0.00 | 56 | 1015.5 |
| 20260508153744 | 56 | 200 | 4.0 | 6.0 | 0.00 | 0.00 | 0.00 | 56 | 1015.6 |
| 20260508152729 | 55 | 196 | 3.0 | 4.0 | 0.00 | 0.00 | 0.00 | 58 | 1015.6 |
| 20260508151735 | 55 | 244 | 2.0 | 5.0 | 0.00 | 0.00 | 0.00 | 66 | 1015.6 |
| 20260508150741 | 54 | 236 | 3.0 | 5.0 | 0.00 | 0.00 | 0.00 | 67 | 1015.5 |
| 20260508145733 | 52 | 252 | 1.0 | 2.0 | 0.00 | 0.00 | 0.00 | 69 | 1015.4 |
| 20260508144738 | 51 | 252 | 0.0 | 2.0 | 0.00 | 0.00 | 0.00 | 71 | 1015.3 |
| 20260508143741 | 51 | 252 | 1.0 | 3.0 | 0.00 | 0.00 | 0.00 | 72 | 1015.4 |
| 20260508142805 | 50 | 300 | 1.0 | 2.0 | 0.00 | 0.00 | 0.00 | 72 | 1015.3 |
| 20260508141735 | 49 | 319 | 0.0 | 3.0 | 0.00 | 0.00 | 0.00 | 75 | 1015.3 |
| 20260508140759 | 47 | 319 | 1.0 | 2.0 | 0.00 | 0.00 | 0.00 | 76 | 1015.3 |
| 20260508135801 | 46 | 316 | 1.0 | 2.0 | 0.00 | 0.00 | 0.00 | 76 | 1015.2 |
| 20260508134745 | 45 | 322 | 0.0 | 2.0 | 0.00 | 0.00 | 0.00 | 78 | 1015.1 |
| 20260508133730 | 44 | 322 | 1.0 | 4.0 | 0.00 | 0.00 | 0.00 | 77 | 1014.9 |
| 20260508132738 | 44 | 281 | 0.0 | 2.0 | 0.00 | 0.00 | 0.00 | 77 | 1014.8 |
| 20260508131743 | 44 | 281 | 0.0 | 4.0 | 0.00 | 0.00 | 0.00 | 78 | 1014.7 |
| 20260508130727 | 43 | 22 | 0.0 | 2.0 | 0.00 | 0.00 | 0.00 | 77 | 1014.6 |
| 20260508125736 | 43 | 22 | 0.0 | 3.0 | 0.00 | 0.00 | 0.00 | 77 | 1014.4 |
| 20260508124740 | 43 | 21 | 2.0 | 3.0 | 0.00 | 0.00 | 0.00 | 76 | 1014.2 |
| 20260508123730 | 43 | 20 | 1.0 | 3.0 | 0.00 | 0.00 | 0.00 | 75 | 1014.1 |
| 20260508122736 | 43 | 21 | 2.0 | 3.0 | 0.00 | 0.00 | 0.00 | 75 | 1014.1 |
| 20260508121743 | 44 | 20 | 2.0 | 3.0 | 0.00 | 0.00 | 0.00 | 74 | 1014.0 |
| 20260508120737 | 43 | 19 | 1.0 | 3.0 | 0.00 | 0.00 | 0.00 | 74 | 1013.9 |
| 20260508115729 | 43 | 15 | 1.0 | 5.0 | 0.00 | 0.00 | 0.00 | 74 | 1013.8 |
| 20260508114734 | 43 | 51 | 1.0 | 3.0 | 0.00 | 0.00 | 0.00 | 74 | 1013.7 |
| 20260508113739 | 43 | 52 | 1.0 | 3.0 | 0.00 | 0.00 | 0.00 | 73 | 1013.6 |
| 20260508112742 | 44 | 53 | 1.0 | 3.0 | 0.00 | 0.00 | 0.00 | 73 | 1013.4 |
| 20260508111732 | 44 | 53 | 0.0 | 2.0 | 0.00 | 0.00 | 0.00 | 74 | 1013.4 |
| 20260508110737 | 44 | 53 | 0.0 | 2.0 | 0.00 | 0.00 | 0.00 | 73 | 1013.3 |
| 20260508105725 | 45 | 53 | 2.0 | 3.0 | 0.00 | 0.00 | 0.00 | 72 | 1013.2 |
| 20260508104732 | 44 | 53 | 1.0 | 2.0 | 0.00 | 0.00 | 0.00 | 73 | 1013.1 |
| 20260508103743 | 45 | 53 | 0.0 | 0.0 | 0.00 | 0.00 | 0.00 | 72 | 1013.0 |
| 20260508102748 | 45 | 53 | 1.0 | 3.0 | 0.00 | 0.00 | 0.00 | 70 | 1013.2 |
| 20260508101733 | 45 | 53 | 0.0 | 1.0 | 0.00 | 0.00 | 0.00 | 69 | 1013.0 |
| 20260508100737 | 45 | 53 | 1.0 | 4.0 | 0.00 | 0.00 | 0.00 | 71 | 1012.9 |
| 20260508095745 | 46 | 340 | 0.0 | 3.0 | 0.00 | 0.00 | 0.00 | 71 | 1013.0 |
| 20260508094752 | 46 | 338 | 0.0 | 3.0 | 0.00 | 0.00 | 0.00 | 70 | 1012.9 |
| 20260508093756 | 46 | 321 | 0.0 | 4.0 | 0.00 | 0.00 | 0.00 | 70 | 1012.9 |
| 20260508092741 | 46 | 19 | 1.0 | 3.0 | 0.00 | 0.00 | 0.00 | 70 | 1012.8 |
| 20260508091726 | 46 | 15 | 1.0 | 3.0 | 0.00 | 0.00 | 0.00 | 70 | 1012.9 |
| 20260508090736 | 46 | 15 | 0.0 | 3.0 | 0.00 | 0.00 | 0.00 | 69 | 1012.8 |
| 20260508085747 | 46 | 15 | 0.0 | 3.0 | 0.00 | 0.00 | 0.00 | 68 | 1012.5 |
| 20260508084730 | 47 | 15 | 2.0 | 3.0 | 0.00 | 0.00 | 0.00 | 66 | 1012.7 |
| 20260508083756 | 47 | 15 | 0.0 | 2.0 | 0.00 | 0.00 | 0.00 | 66 | 1012.9 |
| 20260508082739 | 48 | 14 | 1.0 | 5.0 | 0.00 | 0.00 | 0.00 | 67 | 1012.7 |
| 20260508081724 | 48 | 13 | 3.0 | 5.0 | 0.00 | 0.00 | 0.00 | 65 | 1012.8 |
| 20260508080728 | 49 | 108 | 1.0 | 4.0 | 0.00 | 0.00 | 0.00 | 65 | 1012.8 |
| 20260508075757 | 49 | 44 | 1.0 | 2.0 | 0.00 | 0.00 | 0.00 | 66 | 1012.7 |
| 20260508074742 | 50 | 44 | 1.0 | 4.0 | 0.00 | 0.00 | 0.00 | 63 | 1012.8 |
| 20260508073725 | 50 | 266 | 1.0 | 3.0 | 0.00 | 0.00 | 0.00 | 62 | 1012.9 |
| 20260508072733 | 50 | 265 | 1.0 | 3.0 | 0.00 | 0.00 | 0.00 | 62 | 1012.8 |
| 20260508071738 | 51 | 265 | 1.0 | 4.0 | 0.00 | 0.00 | 0.00 | 62 | 1012.9 |
| 20260508070742 | 52 | 279 | 3.0 | 6.0 | 0.00 | 0.00 | 0.00 | 59 | 1013.0 |
| 20260508065727 | 51 | 150 | 2.0 | 3.0 | 0.00 | 0.00 | 0.00 | 60 | 1013.0 |
| 20260508064738 | 50 | 151 | 2.0 | 6.0 | 0.00 | 0.00 | 0.00 | 63 | 1013.0 |
| 20260508063743 | 49 | 165 | 0.0 | 3.0 | 0.00 | 0.00 | 0.00 | 64 | 1013.1 |
| 20260508062727 | 49 | 165 | 5.0 | 6.0 | 0.00 | 0.00 | 0.00 | 62 | 1013.0 |
| 20260508061733 | 52 | 178 | 4.0 | 6.0 | 0.00 | 0.00 | 0.00 | 57 | 1013.0 |
| 20260508060742 | 56 | 275 | 5.0 | 9.0 | 0.00 | 0.00 | 0.00 | 46 | 1013.0 |
| 20260508055735 | 57 | 117 | 4.0 | 8.0 | 0.00 | 0.00 | 0.00 | 41 | 1012.8 |
| 20260508054739 | 58 | 99 | 1.0 | 3.0 | 0.00 | 0.00 | 0.00 | 42 | 1012.8 |
| 20260508053726 | 60 | 99 | 1.0 | 9.0 | 0.00 | 0.00 | 0.00 | 39 | 1012.8 |
| 20260508052731 | 60 | 100 | 6.0 | 8.0 | 0.00 | 0.00 | 0.00 | 37 | 1012.8 |
| 20260508051739 | 59 | 66 | 2.0 | 5.0 | 0.00 | 0.00 | 0.00 | 38 | 1012.9 |
| 20260508050804 | 60 | 44 | 3.0 | 9.0 | 0.00 | 0.00 | 0.00 | 41 | 1013.0 |
| 20260508045730 | 61 | 95 | 1.0 | 7.0 | 0.00 | 0.00 | 0.00 | 38 | 1013.0 |
| 20260508044733 | 61 | 90 | 5.0 | 9.0 | 0.00 | 0.00 | 0.00 | 36 | 1012.9 |
| 20260508043736 | 61 | 101 | 7.0 | 10.0 | 0.00 | 0.00 | 0.00 | 36 | 1013.0 |
| 20260508042744 | 60 | 86 | 4.0 | 6.0 | 0.00 | 0.00 | 0.00 | 39 | 1012.9 |
| 20260508041729 | 61 | 76 | 2.0 | 5.0 | 0.00 | 0.00 | 0.00 | 38 | 1012.9 |
| 20260508040753 | 60 | 75 | 4.0 | 9.0 | 0.00 | 0.00 | 0.00 | 38 | 1012.8 |
| 20260508035738 | 60 | 76 | 4.0 | 6.0 | 0.00 | 0.00 | 0.00 | 40 | 1012.7 |
| 20260508034801 | 61 | 67 | 1.0 | 5.0 | 0.00 | 0.00 | 0.00 | 40 | 1012.7 |
| 20260508033727 | 61 | 95 | 2.0 | 8.0 | 0.00 | 0.00 | 0.00 | 40 | 1012.5 |
| 20260508032733 | 61 | 94 | 6.0 | 8.0 | 0.00 | 0.00 | 0.00 | 39 | 1012.3 |
| 20260508031738 | 60 | 74 | 3.0 | 7.0 | 0.00 | 0.00 | 0.00 | 40 | 1012.3 |
| 20260508030744 | 60 | 94 | 4.0 | 6.0 | 0.00 | 0.00 | 0.00 | 41 | 1012.1 |
| 20260508025737 | 60 | 72 | 2.0 | 4.0 | 0.00 | 0.00 | 0.00 | 45 | 1012.1 |
| 20260508024742 | 62 | 34 | 0.0 | 2.0 | 0.00 | 0.00 | 0.00 | 49 | 1012.0 |
| 20260508023726 | 64 | 34 | 1.0 | 4.0 | 0.00 | 0.00 | 0.00 | 42 | 1011.9 |
| 20260508022750 | 66 | 32 | 2.0 | 4.0 | 0.00 | 0.00 | 0.00 | 41 | 1011.9 |
| 20260508021737 | 68 | 284 | 2.0 | 3.0 | 0.00 | 0.00 | 0.00 | 38 | 1011.9 |
| 20260508020740 | 70 | 284 | 0.0 | 3.0 | 0.00 | 0.00 | 0.00 | 30 | 1011.6 |
| 20260508015728 | 70 | 284 | 2.0 | 4.0 | 0.00 | 0.00 | 0.00 | 31 | 1011.6 |
| 20260508014733 | 70 | 282 | 3.0 | 6.0 | 0.00 | 0.00 | 0.00 | 30 | 1011.5 |
| 20260508013739 | 71 | 333 | 3.0 | 9.0 | 0.00 | 0.00 | 0.00 | 29 | 1011.5 |
| 20260508012729 | 72 | 350 | 5.0 | 9.0 | 0.00 | 0.00 | 0.00 | 28 | 1011.4 |
| 20260508011733 | 72 | 15 | 5.0 | 8.0 | 0.00 | 0.00 | 0.00 | 28 | 1011.4 |
| 20260508010741 | 73 | 327 | 6.0 | 10.0 | 0.00 | 0.00 | 0.00 | 28 | 1011.4 |
| 20260508005757 | 72 | 299 | 2.0 | 10.0 | 0.00 | 0.00 | 0.00 | 26 | 1011.4 |
| 20260508004749 | 72 | 234 | 8.0 | 17.0 | 0.00 | 0.00 | 0.00 | 28 | 1011.3 |